Weather in Mannheim

Germany     49˚28′32″N   8˚28′44″E
temp.,
°C
wind,
m/s
gust,
m/s
humid.,
%
clouds,
%
prec.,
mm/h
press.,
hPa
HPBL,
m
28 november, sat
sat2801:00+4˚nne11610 0.0 102143
04:00+3˚n11570 0.0 102147
07:00+3˚n11590 0.0 102147
10:00+4˚n11540 0.0 1021127
13:00+7˚n12470 0.0 1020290
16:00+6˚nnw235545 0.0 101988
19:00+5˚ne126747 0.0 102081
22:00+4˚n237465 0.0 1022110
29 november, sun
sun2901:00+3˚nne237579 0.0 1022109
04:00+2˚ne25720 0.0 1023311
07:00+1˚ne24760 0.0 1024311
10:00+1˚ne24720 0.0 1025441
13:00+4˚ne24550 0.0 1024681
16:00+4˚ne24580 0.0 1024631
19:00+2˚ne25680 0.0 1026227
22:00+2˚ne25750 0.0 1027246
30 november, mon
mon3001:00+1˚nne12780 0.0 102779
04:00nne11790 0.0 102765
07:00nne11800 0.0 102847
10:00+1˚nne01720 0.0 1028134
13:00+4˚wsw01590 0.0 1027407
16:00+3˚w11600 0.0 1026160
19:00+2˚s12640 0.0 102656
22:00+1˚s256940 0.0 1025215
1 december, tue
tue101:00+2˚s356570 0.0 1024240
04:00+1˚s4696100 1.5 1021338
07:00+1˚s5990100 3.0 1020439
10:00+2˚s3790100 2.1 1018332
13:00+3˚s2492100 2.4 1018206
16:00+3˚sse1294100 0.4 101884
19:00+3˚se1194100 0.5 101963
22:00+3˚ne019595 0.0 102022
2 december, wed
wed201:00+3˚nw009489 0.0 102124
04:00+3˚ne009299 0.0 102138
07:00+3˚nw019297 0.0 102241
10:00+4˚se1188100 0.0 1022131
13:00+5˚ssw1279100 0.0 1021408
16:00+5˚ene117835 0.0 102136
19:00+3˚e238220 0.0 1021104
22:00+2˚e117927 0.0 102124